Tracking 19219 objects as of 21-Jul-2018
HD Live streaming from Space Station
objects crossing your sky now

FENGYUN 1C DEB

Track FENGYUN 1C DEB now!
10-day predictions


NORAD ID: 37069
Int'l Code: 1999-025EFD
Perigee: 822.6 km
Apogee: 1,505.9 km
Inclination: 95.8 °
Period: 108.5 minutes
Semi major axis: 7535 km
RCS: 0.0144 m2 (small)
Launch date: May 10, 1999
Source: People's Republic of China (PRC)
Launch site: Taiyaun Space Center, China (TSC)

Note: This is SATELLITE DEBRIS
aabbcc
Your satellite tracking list
Your tracking list is empty




NASA's NSSDC Master Catalog

Two Line Element Set (TLE):
1 37069U 99025EFD 18198.83271550  .00000462  00000-0  61461-3 0  9991
2 37069  95.8422 211.9451 0453411 249.8859 105.2951 13.27273022517402
Source of the keplerian elements: AFSPC